Find Starlink 35952

NORAD ID: 66520 Int'l Des: 2025-265 Owner: SPXS Country: US Constellation: starlink operational
LEOCIRCULAR

当前视图

正在加载3D地球...

About Starlink 35952

Starlink 35952 (NORAD 66520) is a starlink constellation satellite (v2 mini) launched Nov 19, 2025 by SPXS of US. It operates in LEO, CIRCULAR orbit with a mass of 575.00 kg.

关于 Starlink 35952

正在加载描述...

即将过境

Passes for default location (London). Set your location on the main map for personalized predictions.

高度历史

Loading altitude history...

两行轨道根数

1 66520U 25265E 26195.55543611 .00005632 00000-0 21405-3 0 9993
2 66520 43.0012 281.6699 0001307 276.5849 83.4854 15.27576245 36515
Epoch: Jul 14, 2026 • Age: 10 hours

当前状态

高度 485.8 km
远地点 / 近地点 N/A
速度 7.63 km/s
星下点 37.47°N, 122.81°E
发射日期 Nov 19, 2025
运行时间 0.6 years
类型 internet

技术详情

分类 Payload
质量 575.00 kg
干质量 530.00 kg
总质量 575.00 kg
长度 0.30 m
直径 4.10 m
跨度 29.00 m
形状 Box + pan
制造商 SPXS
平台类型 Starlink V2MO
阶段状态 In Orbit
所有者/国家 SPXS/US

Most Searched